TimeEDT,TemperatureF,Dew PointF,Humidity,Sea Level PressureIn,VisibilityMPH,Wind Direction,Wind SpeedMPH,Gust SpeedMPH,PrecipitationIn,Events,Conditions,WindDirDegrees,DateUTC
12:56 AM,55.0,46.0,72,29.92,10.0,NW,6.9,17.3,N/A,,Clear,320,2012-10-07 04:56:00
1:56 AM,54.0,44.1,69,29.95,10.0,NW,9.2,-,N/A,,Clear,320,2012-10-07 05:56:00
2:56 AM,52.0,45.0,77,29.96,10.0,NW,4.6,-,N/A,,Clear,310,2012-10-07 06:56:00
3:56 AM,52.0,43.0,71,29.97,10.0,WNW,3.5,-,N/A,,Clear,300,2012-10-07 07:56:00
4:56 AM,48.9,42.1,77,29.98,10.0,WNW,3.5,-,N/A,,Clear,290,2012-10-07 08:56:00
5:56 AM,48.9,41.0,74,29.99,10.0,WNW,4.6,-,N/A,,Clear,290,2012-10-07 09:56:00
6:56 AM,48.0,41.0,77,30.02,10.0,WNW,4.6,-,N/A,,Clear,290,2012-10-07 10:56:00
7:56 AM,48.9,41.0,74,30.04,10.0,WNW,5.8,-,N/A,,Clear,300,2012-10-07 11:56:00
8:56 AM,53.1,43.0,69,30.06,10.0,NNW,4.6,-,N/A,,Clear,330,2012-10-07 12:56:00
9:56 AM,54.0,43.0,66,30.06,10.0,NNW,5.8,-,N/A,,Clear,330,2012-10-07 13:56:00
10:56 AM,57.9,43.0,58,30.04,10.0,North,9.2,-,N/A,,Clear,350,2012-10-07 14:56:00
11:56 AM,57.9,44.1,60,30.05,10.0,NNW,9.2,-,N/A,,Clear,330,2012-10-07 15:56:00
12:56 PM,57.9,44.1,60,30.04,10.0,North,5.8,-,N/A,,Clear,10,2012-10-07 16:56:00
1:56 PM,55.9,44.1,64,30.04,10.0,North,5.8,-,N/A,,Overcast,10,2012-10-07 17:56:00
2:56 PM,55.9,45.0,67,30.04,10.0,Calm,Calm,-,0.00,Rain,Light Rain,0,2012-10-07 18:56:00
3:56 PM,54.0,48.0,80,30.04,10.0,Calm,Calm,-,0.01,Rain,Light Rain,0,2012-10-07 19:56:00
4:56 PM,52.0,50.0,93,30.02,8.0,East,3.5,-,0.09,Rain,Light Rain,90,2012-10-07 20:56:00
5:56 PM,51.1,48.9,92,30.04,10.0,Variable,3.5,-,0.02,Rain,Light Rain,0,2012-10-07 21:56:00
6:56 PM,51.1,48.9,92,30.04,10.0,Calm,Calm,-,0.02,Rain,Light Rain,0,2012-10-07 22:56:00
7:56 PM,51.1,50.0,96,30.02,10.0,Calm,Calm,-,0.00,,Overcast,0,2012-10-07 23:56:00
8:56 PM,51.1,48.9,92,29.99,10.0,East,4.6,-,N/A,,Overcast,90,2012-10-08 00:56:00
9:56 PM,51.1,50.0,96,30.01,10.0,North,3.5,-,N/A,,Overcast,350,2012-10-08 01:56:00
10:40 PM,50.0,48.2,94,30.01,6.0,NNW,3.5,-,0.01,Rain,Light Rain,330,2012-10-08 02:40:00
10:56 PM,50.0,48.0,93,30.02,5.0,NW,4.6,-,0.01,Rain,Light Rain,320,2012-10-08 02:56:00
11:28 PM,48.2,48.2,100,30.03,5.0,NNW,5.8,-,0.02,Rain,Light Rain,330,2012-10-08 03:28:00
11:46 PM,48.2,48.2,100,30.03,4.0,NW,3.5,-,0.03,Rain,Light Rain,320,2012-10-08 03:46:00
11:56 PM,48.9,48.0,97,30.04,5.0,NW,3.5,-,0.03,Rain,Light Rain,320,2012-10-08 03:56:00